{"data":{"norad_id":58213,"intl_designator":"2023-170H","name":"STARLINK-30813","alt_names":[],"object_type":"PAYLOAD","status":"ACTIVE","operator":null,"country":"US","launch_date":"2023-11-03","launch_site_code":"AFETR","launch_vehicle":null,"mission":null,"orbit_class":"UNKNOWN","rcs_meters":null,"size_class":null,"mass_kg":null,"dimensions":null,"purposes":["comms"],"wikipedia_slug":null,"has_3d_model":false,"image_url":null,"decayed_at":null,"tle_current":{"epoch":"2026-09-20T03:59:36.962592Z","epoch_age_seconds":172516,"freshness":"FRESH","line1":"1 58213U 23170H   26263.16640003  .00000035  00000+0  10800-4 0  9991","line2":"2 58213  43.0003 175.7999 0001334 263.8729  96.1971 15.27577815160048","mean_motion":15.27577815,"eccentricity":0.0001334,"inclination_deg":43.0003,"raan_deg":175.7999,"arg_perigee_deg":263.8729,"mean_anomaly_deg":96.1971,"bstar":1.08e-5,"rev_number":16004,"period_min":94.26688354989,"perigee_km":482.1403556255,"apogee_km":483.97092182151,"semimajor_km":6861.1926387235,"source":"CELESTRAK","updated_at":"2026-09-21T09:00:33.832437Z"}}}